Starlink 5525

operational
NORAD ID: 57218 Int'l Des: 2023-094 Owner: SPXS Country: US Constellation: starlink
LEOCIRCULAR

关于 Starlink 5525

正在加载描述...

实时位置

正在加载3D地球...

即将过境

高度历史

Altitude vs Time

uPlot chart will show altitude changes over time

两行轨道根数

1 57218U 23094A 25258.70886141 -.00000075 00000-0 95048-5 0 9992
2 57218 43.0032 261.5305 0001113 270.8588 89.2127 15.02535603120791
Epoch: Sep 15, 2025 • Age: 17 hours

当前状态

高度 565.1 km
速度 7.58 km/s
星下点 -26.19°S, 74.57°E
发射日期 Jul 7, 2023
运行时间 2.1 years
类型 internet

技术详情

分类 Payload
质量 305.00 kg
干质量 290.00 kg
总质量 305.00 kg
长度 0.20 m
直径 2.80 m
跨度 9.00 m
形状 Box + pan
制造商 SPXS
平台类型 Starlink
阶段状态 In Orbit
所有者/国家 SPXS/US

大型星座

Loading constellations...